Tracking 17143 objects as of 25-May-2015
HD Live streaming from Space Station

ASIASTAR

Track ASIASTAR now!
ASIASTAR is classified as:


NORAD ID: 26107
Int'l Code: 2000-016A
Perigee: 35,777.7 km
Apogee: 35,810.4 km
Inclination: 0.1 °
Period: 1,436.1 minutes
Semi major axis: 42165 km
RCS: 19.9526 m2 (large)
Launch date: March 21, 2000
Source: United States (US)

Africa, Middle East, Asia, Latin America and Caribbean. Services to underserved emerging markets; low-cost portable receivers.
Your satellite tracking list
Your tracking list is empty





NASA's NSSDC Master Catalog

Two Line Element Set (TLE):
1 26107U 00016A   15143.95325166 -.00000345  00000-0  10000-3 0  9991
2 26107 000.1444 057.5846 0003874 359.7511 272.0716 01.00270627 55616

Source of the keplerian elements: AFSPC

N2YO: 331